Showing default

OPS 6582 (TRANSIT 5E-5), 959

Orbit data source: Space-Track

OPS 6582 (TRANSIT 5E-5), 959 is a payload satellite owned by USN BuWeps (US) in LEO that was launched on Sun, 13 Dec 1964 UTC via a THOR ABLESTAR launch vehicle from the Air Force Western Test Range (AFWTR). Payload-class satellites include a variety of spacecraft equipped with specific instruments for various scientific and technological missions. These include communications satellites like Starlink; space stations such as the ISS; scientific satellites like the Hubble; Earth observation satellites from companies like Planet Labs, Umbra, and HawkEye 360; GPS; miniature CubeSats for education and research; and military/defense satellites.

Loading next visibility...
Identifier
959, 1964-083C
Orbit
LEO
Country
Flag of USUS
Related business
Manufacturer
APL
Mission
Spacecraft
Bus & Motor
TRANSIT 5, Unknown motor
Mass
77 kg wet, 77 kg dry
Launch date (UTC)
Icon of a cake. It is the launch day of the satellite!1964-12-13 (61 years ago)
Launch vehicle
THOR ABLESTAR
Launch site
Air Force Western Test Range (AFWTR)
Object type
Payload
Rocket body
Debris
Shape & HBR
Unknown
Radar Cross Section
Large (>1 m²)

Expand to show TLE details & history
Last TLE update: 6 hours ago

TLE from 6 hours ago
0 OPS 6582 (TRANSIT 5E-5)
1 00959U 64083C   25347.02745524  .00000264  00000-0  32556-3 0  9990
2 00959  90.0028 187.1399 0043296 131.3532 345.9006 13.62425412 24861
Epoch: 2025-12-13T00:39Z
TLE epoch observation values (Epoch: 2025-12-13T00:39:32.132Z)
Latitude
62.95427°
Longitude
-84.69915°
Altitude
1,006.702 km
Speed
7.37 km/s
True Right ascension
00h 28m 34s
True Declination
62° 49' 10"
Sunlit
Object was in daylight at epoch
Visualization orbit readout
Latitude
Unknown
Longitude
Unknown
Altitude
Unknown
Speed
Unknown
Apparent Right ascension
Unknown
Apparent Declination
Unknown
Sunlit
N/A
Visualization observer readout
Local Sidereal Time
05:22:00
Azimuth
Unknown
Elevation
Unknown
Doppler factor
Unknown
Orbital elements
Apogee altitude
1,055.97 km
Perigee altitude
991.874 km
Semi-major axis
7,402.059 km
Eccentricity
0.00433
Inclination
90.0028°
RAAN
187.1399°
Arg. of periapsis
131.3532°
True anomaly
345.7791°
Mean anomaly
345.9006°
Eccentric anomaly
345.83991°
Mean motion
3.40812 °/min
Orbital period
105.63 mins
BSTAR
0.00032556
Loading maneuver chart data...
Computing Atmospheric mass density...

Documentation

Showing up to 5 results
|